986  
ASUS41 KPHI 222010  
RWRPHI  
 
REGIONAL WEATHER ROUNDUP  
NATIONAL WEATHER SERVICE MOUNT HOLLY NJ  
300 PM EST SAT NOV 22 2014  
 
NOTE: "FAIR" INDICATES FEW OR NO CLOUDS BELOW 12,000 FEET WITH NO  
SIGNIFICANT WEATHER AND/OR S TO VISIBILITY
.  
 
* = STATION DOES NOT REPORT PRECIPITATION (E.G. RAIN, SNOW, ETC.)  
OR FOG.
 
 
NJZ015>026-222100-  
SOUTHERN NEW JERSEY  
 
CITY SKY/WX TMP DP RH WIND PRES REMARKS
 
POMONA SUNNY 44 21 40 SW15G22 30.35F  
RIO GRANDE* SUNNY 46 21 36 SW12 30.35F  
MILLVILLE SUNNY 45 21 38 SW8 30.35F  
WRIGHTSTOWN MOSUNNY 44 15 31 SW17 30.29F  
MOUNT HOLLY SUNNY 44 17 33 VRB6 30.32F  
TRENTON PTSUNNY 42 17 36 SW10 30.31F  
 

 
NJZ001>014-222100-  
NORTHERN NEW JERSEY  
 
CITY SKY/WX TMP DP RH WIND PRES REMARKS
 
SUSSEX CLOUDY 40 12 32 SW9 30.24F WCI 34  
ANDOVER* N/A 40 12 32 SW10 30.25F WCI 33  
MORRISTOWN CLOUDY 43 12 28 W12G18 30.28F  
NEWARK PTSUNNY 42 15 33 SW12 30.30F  
TETERBORO PTSUNNY 43 12 28 SW14 30.28F  
CALDWELL CLOUDY 42 11 28 W9 30.29F  
SOMERVILLE CLOUDY 44 13 28 SW8G17 30.28F  
ALLAIRE* MOSUNNY 45 14 29 SW12G17 30.31S  
TOMS RIVER* MOSUNNY 45 16 31 SW10G17 30.34S  
 

 
PAZ043-044-047-054-055-060>062-066>071-222100-  
EASTERN PENNSYLVANIA  
 
CITY SKY/WX TMP DP RH WIND PRES REMARKS
 
PHILADELPHIA PTSUNNY 46 17 31 SW17 30.34F  
NORTH PHILA MOSUNNY 46 16 30 SW13G23 30.34F  
BLUE BELL CLOUDY 43 23 45 SW9 30.31S  
DOYLESTOWN CLOUDY 41 16 36 SW8 30.30F  
QUAKERTOWN* CLOUDY 41 16 36 SW9 30.30S  
POTTSTOWN CLOUDY 42 16 34 SW9 30.32F  
LANCASTER CLOUDY 42 14 32 S10 30.30F  
COATESVILLE PTSUNNY 39 19 45 S6 30.31F WCI 35  
READING CLOUDY 43 14 31 S9 30.28F  
ALLENTOWN CLOUDY 42 12 29 SW12 30.28F  
MOUNT POCONO CLOUDY 36 8 31 SW12G20 30.18F WCI 28  
HAZLETON CLOUDY 36 12 38 S8 30.24S WCI 29  
WILKES BARRE CLOUDY 41 10 28 SW8 30.19F  
 

 
DEZALL-MDZ008-012-015-019-020-222100-  
DELAWARE AND EASTERN MARYLAND  
 
CITY SKY/WX TMP DP RH WIND PRES REMARKS
 
WILMINGTON CLOUDY 45 16 31 SW12 30.35F  
DOVER SUNNY 47 20 34 S15 30.33F  
GEORGETOWN SUNNY 47 17 30 SW10G20 30.38F  
PATUXENT MOSUNNY 48 14 25 SW10 30.38F  
OCEAN CITY SUNNY 45 23 42 SW13G22 30.39F  
WALLOPS ISLAND SUNNY 46 23 40 SW16 30.41F  
CAMBRIDGE SUNNY 46 19 34 S8 30.38F  
SALISBURY SUNNY 49 16 26 S13 30.39F  
 

 
PAZ001-021-NYZ056-072-MDZ011-DCZ001-222100-  
OTHER NEARBY LOCATIONS  
 
CITY SKY/WX TMP DP RH WIND PRES REMARKS
 
HARRISBURG CLOUDY 41 16 36 S8 30.28F  
STATE COLLEGE RAIN 32 21 64 W5 30.20S WCI 27  
WILLIAMSPORT LGT RAIN 36 16 44 SE6 30.24F WCI 31  
BINGHAMTON CLOUDY 38 10 31 SW15G28 30.08F WCI 29  
NEW YORK CITY PTSUNNY 43 14 31 W9 30.31F  
BALTIMORE PTSUNNY 47 14 26 S7G17 30.32F  
WASHINGTON DC PTSUNNY 52 16 24 S15 30.35F  
 

 
 
CLICK HERE TO GO TO PREVIOUS BULLETINS.

The Nexlab PA Page
The Nexlab NJ Page
The Nexlab DE Page
The Nexlab MD Page Main Text Page